[[[{"header":{"parameterUnit":"kt","parameterCategory":2,"dx":1,"dy":1,"la1":30.253999710083008,"la2":30.299108505249023,"lo1":-89.0895004272461,"lo2":-89.04439544677734,"nx":28,"ny":28,"refTime":"2022-10-22T21:00:00:Z","depth":0,"parameterNumber":1,"parameterNumberName":"U-component_of_WINDS"},"data":[-8.6249,-8.6293,-8.6298,-8.6351,-8.6365,-8.6401,-8.6416,-8.6436,-8.6453,-8.6498,-8.6525,-8.6536,-8.6556,-8.659,-8.6619,-8.6623,-8.6634,-8.6645,-8.6648,-8.6594,-8.6587,-8.658,-8.6569,-8.6648,-8.6648,-8.6701,-8.6701,-8.6702,-8.6207,-8.6221,-8.6252,-8.6284,-8.6309,-8.6302,-8.6328,-8.6349,-8.6382,-8.6405,-8.6432,-8.6472,-8.6505,-8.6522,-8.6555,-8.6575,-8.6573,-8.6583,-8.658,-8.6583,-8.6527,-8.6515,-8.6584,-8.6584,-8.6584,-8.6584,-8.6584,-8.6584,-8.6132,-8.6159,-8.6182,-8.6214,-8.6233,-8.6255,-8.6281,-8.6293,-8.6323,-8.6357,-8.6359,-8.6397,-8.6421,-8.6464,-8.648,-8.651,-8.6499,-8.6512,-8.6515,-8.6517,-8.6518,-8.6436,-8.6516,-8.6516,-8.6516,-8.6516,-8.6516,0,-8.6078,-8.6081,-8.6111,-8.6141,-8.6166,-8.6191,-8.6214,-8.6231,-8.624,-8.6264,-8.63,-8.6321,-8.6364,-8.6398,-8.6431,-8.6445,-8.6438,-8.644,-8.6448,-8.6445,-8.6438,-8.6439,-8.6344,-8.6437,-8.6436,-8.6436,-8.6435,-8.6435,-8.6,-8.6032,-8.6059,-8.6079,-8.6093,-8.6126,-8.6146,-8.6152,-8.6173,-8.6204,-8.6227,-8.6262,-8.629,-8.6347,-8.6361,-8.6393,-8.639,-8.6424,-8.6394,-8.6391,-8.6386,-8.6383,-8.6385,-8.6428,-8.6429,-8.643,-8.643,0,-8.5955,-8.5964,-8.6015,-8.6039,-8.6047,-8.6079,-8.61,-8.6127,-8.6137,-8.6175,-8.6185,-8.6199,-8.6235,-8.6243,-8.6286,-8.629,-8.6342,-8.634,-8.6333,-8.6331,-8.636,-8.6356,-8.646,-8.6472,-8.6394,-8.6395,-8.6395,0,-8.589,-8.5932,-8.5943,-8.5972,-8.6018,-8.6022,-8.6068,-8.608,-8.6101,-8.6131,-8.6126,-8.6155,-8.6162,-8.6193,-8.6198,-8.6243,-8.6252,-8.6256,-8.6256,-8.6254,-8.6253,-8.6262,-8.6257,-8.626,-8.6259,-8.6259,-8.6258,0,-8.5815,-8.5872,-8.5919,-8.5934,-8.5964,-8.5986,-8.6,-8.6023,-8.6044,-8.6072,-8.6085,-8.6118,-8.6135,-8.6161,-8.6167,-8.6146,-8.6223,-8.6195,-8.6226,-8.6226,-8.624,-8.6238,-8.6331,-8.6258,-8.6257,-8.6257,-8.6257,0,-8.5763,-8.5792,-8.5861,-8.5885,-8.5899,-8.5932,-8.5963,-8.5993,-8.6018,-8.6023,-8.6046,-8.6042,-8.6084,-8.6056,-8.6113,-8.6084,-8.6101,-8.611,-8.6112,-8.6112,-8.6079,-8.6126,-8.6217,-8.6225,-8.6118,-8.6117,-8.6116,0,-8.5673,-8.5746,-8.5749,-8.5815,-8.5849,-8.584,-8.5876,-8.5898,-8.5908,-8.5938,-8.5949,-8.5984,-8.5965,-8.5976,-8.6004,-8.6016,-8.6054,-8.6012,-8.6052,-8.6053,-8.6041,-8.6126,-8.6135,-8.6197,-8.6101,-8.6103,-8.6104,0,-8.5604,-8.5641,-8.5653,-8.5668,-8.5699,-8.5728,-8.577,-8.5805,-8.5825,-8.5852,-8.5885,-8.5937,-8.5923,-8.5943,-8.5944,-8.5972,-8.6028,-8.5954,-8.5954,-8.5964,-8.6096,-8.6104,-8.6114,-8.6023,-8.6025,-8.6026,-8.6093,0,-8.5517,-8.5556,-8.5589,-8.5624,-8.5649,-8.5692,-8.57,-8.5724,-8.5722,-8.573,-8.5782,-8.5803,-8.5839,-8.5855,-8.5853,-8.5916,-8.5906,-8.5891,-8.5861,-8.5918,-8.594,-8.5949,-8.5828,-8.5827,-8.5826,-8.5826,0,0,-8.5426,-8.5481,-8.5484,-8.5525,-8.5545,-8.5533,-8.5578,-8.5597,-8.5634,-8.5648,-8.5632,-8.5706,-8.5724,-8.5786,-8.5804,-8.582,-8.5831,-8.5811,-8.5892,-8.5899,-8.5906,-8.5929,-8.5939,-8.5825,-8.5824,-8.5824,-8.5824,0,-8.5395,-8.5415,-8.546,-8.5479,-8.5507,-8.5514,-8.5525,-8.5551,-8.5558,-8.561,-8.5599,-8.5631,-8.5691,-8.571,-8.5728,-8.5805,-8.5793,-8.5816,-8.5853,-8.5885,-8.5893,-8.59,-8.5925,-8.5934,-8.5822,-8.5822,-8.5822,0,-8.5325,-8.5345,-8.5368,-8.5415,-8.5433,-8.547,-8.544,-8.5481,-8.5508,-8.5492,-8.5543,-8.5556,-8.5583,-8.5642,-8.5668,-8.5654,-8.5758,-8.5728,-8.5732,-8.5734,-8.5765,-8.5775,-8.5784,-8.5666,-8.5666,-8.5665,0,0,-8.5297,-8.5334,-8.5355,-8.5409,-8.5421,-8.5432,-8.5452,-8.5451,-8.5476,-8.5486,-8.5501,-8.5526,-8.556,-8.5583,-8.5616,-8.568,-8.5684,-8.5708,-8.5715,-8.5721,-8.5726,-8.5759,-8.5769,-8.5663,-8.5663,-8.5663,0,0,-8.5283,-8.531,-8.5303,-8.5366,-8.539,-8.5414,-8.5446,-8.5438,-8.5468,-8.5464,-8.5464,-8.5471,-8.5526,-8.5539,-8.5508,-8.5604,-8.5575,-8.5582,-8.5593,-8.5602,-8.561,-8.5604,-8.548,0,0,0,0,0,-8.5254,-8.5307,-8.53,-8.5312,-8.5371,-8.5418,-8.5426,-8.5427,-8.5405,-8.543,-8.5442,-8.5429,-8.5522,-8.5495,-8.5507,-8.5539,-8.5634,-8.5639,-8.5644,-8.5673,-8.5683,-8.5691,0,0,0,0,0,0,-8.5259,-8.5273,-8.5299,-8.5325,-8.5339,-8.5416,-8.538,-8.5382,-8.5403,-8.5399,-8.5427,-8.543,-8.5432,-8.5489,-8.55,-8.5531,-8.5476,-8.5636,-8.5641,-8.5644,-8.5676,-8.5684,-8.5691,0,0,0,0,0,-8.5263,-8.5274,-8.5369,-8.5325,-8.5336,-8.5351,-8.5378,-8.5379,-8.5395,-8.5413,-8.5415,-8.5394,-8.5433,-8.5441,-8.5496,-8.5526,-8.5469,-8.5473,-8.5639,-8.5642,-8.5645,-8.568,0,0,0,0,0,0,-8.5265,-8.5275,-8.5371,-8.5375,-8.5305,-8.5346,-8.5353,-8.5377,-8.5408,-8.541,-8.538,-8.5377,-8.5434,-8.544,-8.5447,-8.5524,-8.5463,-8.5467,-8.5469,-8.5642,-8.5644,-8.5647,0,0,0,0,0,0,-8.5269,-8.5279,-8.5373,-8.5348,-8.5348,-8.5342,-8.5348,-8.5395,-8.5408,-8.5373,-8.5371,-8.5378,-8.5424,-8.544,-8.5445,-8.5518,-8.5459,-8.5462,-8.5465,-8.5467,-8.5644,-8.5646,0,0,0,0,0,0,-8.5273,-8.5281,-8.5347,-8.5347,-8.5348,-8.5387,-8.5383,-8.5444,-8.5387,-8.5371,-8.5382,-8.5379,-8.5424,-8.5429,-8.5444,-8.5515,-8.5517,-8.5459,-8.5461,-8.5463,-8.5464,0,0,0,0,0,0,0,-8.5276,-8.5223,-8.535,-8.5347,-8.5347,-8.5407,-8.5408,-8.5409,-8.5386,-8.5384,-8.5382,-8.538,-8.5437,-8.5442,-8.5446,-8.5512,0,0,-8.5458,-8.546,0,0,0,0,0,0,0,0,-8.5219,-8.5222,-8.535,-8.5351,-8.5352,-8.5408,-8.5408,-8.5409,-8.5386,-8.5384,-8.5383,-8.5381,-8.5439,-8.5442,-8.5445,0,0,0,0,0,0,0,0,0,0,0,0,0,0,0,-8.535,-8.5351,0,-8.5408,-8.5408,-8.5409,-8.5386,-8.5384,-8.5383,-8.5382,-8.5439,-8.5442,-8.5445,0,0,0,0,0,0,0,0,0,0,0,0,0,0,0,0,0,0,0,0,0,0,0,0,0,0,0,0,0,0,0,0,0,0,0,0,0,0,0,0,0,0,0,0,0,0,0,0,0,0,0,0,0,0,0,0,0,0,0,0,0,0,0,0,0,0,0,0,0]}],[{"header":{"parameterUnit":"kt","parameterCategory":2,"dx":1,"dy":1,"la1":30.253999710083008,"la2":30.299108505249023,"lo1":-89.0895004272461,"lo2":-89.04439544677734,"nx":28,"ny":28,"refTime":"2022-10-22T21:00:00:Z","depth":0,"parameterNumber":2,"parameterNumberName":"V-component_of_WINDS"},"data":[10.2422,10.245,10.2448,10.2479,10.2482,10.2503,10.2509,10.2517,10.2522,10.2546,10.2559,10.2558,10.2561,10.2575,10.2589,10.2588,10.2594,10.2607,10.2604,10.255,10.2543,10.2536,10.253,10.2608,10.2608,10.2661,10.2661,10.2662,10.2385,10.2389,10.2404,10.2417,10.243,10.2417,10.2426,10.2438,10.2456,10.2462,10.2474,10.2494,10.2509,10.2508,10.2522,10.2534,10.2529,10.2538,10.2538,10.2539,10.2481,10.2475,10.2543,10.2543,10.2543,10.2543,10.2543,10.2543,10.2318,10.2335,10.2341,10.2358,10.2363,10.2372,10.2387,10.2386,10.24,10.2415,10.2407,10.2427,10.2432,10.2446,10.2449,10.2465,10.2453,10.2463,10.2465,10.2468,10.2473,10.2401,10.2466,10.2466,10.2466,10.2466,10.2466,0,10.2269,10.2266,10.228,10.2293,10.2305,10.2314,10.2323,10.2332,10.2322,10.2334,10.2351,10.2359,10.2377,10.2392,10.2403,10.2404,10.2391,10.2388,10.2395,10.2401,10.2405,10.2405,10.2313,10.2387,10.2386,10.2385,10.2385,10.2385,10.2203,10.2222,10.2226,10.2237,10.224,10.2256,10.2265,10.2255,10.2265,10.2272,10.2287,10.2302,10.2313,10.2339,10.2336,10.2348,10.2342,10.2371,10.2344,10.2349,10.2345,10.2345,10.2347,10.2377,10.2378,10.2379,10.238,0,10.2167,10.2161,10.2189,10.2191,10.2192,10.2212,10.2214,10.2229,10.2225,10.2246,10.225,10.2244,10.226,10.2252,10.2267,10.2263,10.2297,10.2289,10.2296,10.2295,10.2321,10.232,10.2405,10.2416,10.2333,10.2334,10.2335,0,10.2109,10.2133,10.2125,10.2141,10.2168,10.2157,10.2184,10.2183,10.2187,10.2203,10.2186,10.2201,10.2188,10.2202,10.2195,10.2221,10.2223,10.2222,10.222,10.2225,10.2225,10.223,10.2227,10.2213,10.2212,10.2212,10.2211,0,10.2054,10.2077,10.2103,10.2107,10.2111,10.2123,10.2125,10.2129,10.2137,10.2146,10.2151,10.2162,10.2168,10.2176,10.2168,10.215,10.2198,10.2171,10.2197,10.2197,10.2209,10.2208,10.2285,10.2211,10.2211,10.2211,10.221,0,10.2007,10.2017,10.2055,10.2059,10.2065,10.2081,10.2092,10.2104,10.2109,10.2105,10.2112,10.21,10.212,10.2095,10.2123,10.2103,10.211,10.2109,10.2111,10.2114,10.2086,10.2132,10.2205,10.2213,10.2115,10.2114,10.2113,0,10.1947,10.1983,10.1974,10.201,10.2026,10.2007,10.2025,10.2029,10.2027,10.2039,10.2036,10.2049,10.2029,10.2032,10.2047,10.2044,10.207,10.2039,10.2059,10.2059,10.206,10.2126,10.214,10.219,10.2103,10.2104,10.2105,0,10.19,10.1904,10.1911,10.1915,10.1919,10.1931,10.1951,10.1963,10.1972,10.1977,10.1995,10.2012,10.1998,10.2003,10.1994,10.201,10.2052,10.1992,10.1992,10.2004,10.2096,10.2109,10.2118,10.2042,10.2043,10.2044,10.2096,0,10.1834,10.185,10.1868,10.1877,10.1885,10.1906,10.1898,10.1907,10.1898,10.1894,10.1918,10.1918,10.1928,10.1934,10.1925,10.1963,10.1956,10.1939,10.1915,10.1958,10.1975,10.1982,10.189,10.1889,10.1889,10.1888,0,0,10.1779,10.1802,10.179,10.1809,10.1816,10.1795,10.1819,10.1822,10.1828,10.1833,10.1819,10.1845,10.1844,10.1874,10.1887,10.189,10.1897,10.1881,10.1937,10.1942,10.1947,10.1966,10.1973,10.1887,10.1887,10.1887,10.1886,0,10.1754,10.1755,10.1778,10.1781,10.1785,10.1779,10.1785,10.1785,10.1783,10.1806,10.1788,10.1801,10.182,10.1823,10.1827,10.1877,10.1863,10.1881,10.1912,10.193,10.1937,10.1942,10.1962,10.1969,10.1885,10.1885,10.1885,0,10.1707,10.1707,10.1717,10.1729,10.1731,10.1746,10.1719,10.1735,10.1747,10.1721,10.1744,10.1742,10.1745,10.1773,10.1785,10.1773,10.1834,10.1812,10.1816,10.1817,10.1834,10.1842,10.1849,10.1759,10.1759,10.1759,0,0,10.1686,10.17,10.1697,10.1722,10.1725,10.1717,10.1724,10.1715,10.1718,10.1719,10.1717,10.172,10.1731,10.1739,10.1749,10.1781,10.1781,10.1797,10.1803,10.1807,10.1811,10.183,10.1838,10.1757,10.1757,10.1757,0,0,10.1676,10.1673,10.1663,10.1692,10.1696,10.1693,10.1709,10.1697,10.1705,10.1701,10.1686,10.1686,10.1712,10.1711,10.1692,10.174,10.1715,10.1719,10.174,10.1747,10.1753,10.1753,10.1663,0,0,0,0,0,10.1645,10.1673,10.1665,10.1668,10.1682,10.1698,10.17,10.1689,10.1672,10.1686,10.1682,10.1665,10.1698,10.1682,10.1685,10.1706,10.1738,10.1741,10.1745,10.1779,10.1786,10.1793,0,0,0,0,0,0,10.1646,10.1651,10.1664,10.1663,10.1665,10.1697,10.1667,10.1665,10.1671,10.1667,10.1666,10.1665,10.1655,10.1679,10.1682,10.1702,10.1662,10.1739,10.1742,10.1745,10.1781,10.1788,10.1793,0,0,0,0,0,10.1647,10.1651,10.1676,10.1662,10.1665,10.1657,10.1666,10.1664,10.1668,10.1661,10.1659,10.1659,10.1656,10.1658,10.1681,10.1701,10.166,10.1661,10.1741,10.1743,10.1746,10.1784,0,0,0,0,0,0,10.1648,10.1649,10.1676,10.1676,10.165,10.1655,10.1655,10.1663,10.1661,10.166,10.1653,10.165,10.1657,10.1658,10.166,10.1702,10.1658,10.1659,10.166,10.1743,10.1745,10.1746,0,0,0,0,0,0,10.1647,10.1649,10.1676,10.1662,10.1661,10.1653,10.1653,10.167,10.1661,10.1653,10.1651,10.1652,10.1654,10.1659,10.166,10.1687,10.1657,10.1658,10.1659,10.1659,10.1744,10.1746,0,0,0,0,0,0,10.1648,10.165,10.1662,10.1661,10.166,10.1663,10.1668,10.1682,10.165,10.1653,10.1647,10.1645,10.1655,10.1656,10.166,10.1687,10.1687,10.1657,10.1657,10.1658,10.1658,0,0,0,0,0,0,0,10.1648,10.1637,10.1674,10.166,10.1659,10.168,10.168,10.168,10.165,10.1649,10.1647,10.1646,10.165,10.1651,10.1652,10.1687,0,0,10.1657,10.1657,0,0,0,0,0,0,0,0,10.1636,10.1637,10.1674,10.1674,10.1674,10.168,10.168,10.168,10.165,10.1649,10.1648,10.1647,10.165,10.1651,10.1652,0,0,0,0,0,0,0,0,0,0,0,0,0,0,0,10.1674,10.1674,0,10.168,10.168,10.168,10.1649,10.1649,10.1648,10.1647,10.165,10.1651,10.1652,0,0,0,0,0,0,0,0,0,0,0,0,0,0,0,0,0,0,0,0,0,0,0,0,0,0,0,0,0,0,0,0,0,0,0,0,0,0,0,0,0,0,0,0,0,0,0,0,0,0,0,0,0,0,0,0,0,0,0,0,0,0,0,0,0,0,0,0,0]}]]]